Home > Weather > Kashan > Past weeks

Flag for Iran Weather for the Past 2 Weeks in Kashan, Iran

Now
66 °F

Clear.


Feels Like: 66 °F
Forecast: 60 / 88 °F
Wind: No wind

Location: Kashan Airport

Current Time: Apr 30, 2016 at 8:30:29 AM

Latest Report: Apr 30, 2016 at 6:30 AM


Visibility: 10 mi

Pressure: 29.92 "Hg (26.81 "Hg at 939m altitude)

Humidity: 46%

Dew Point: 45 °F

Location of KashanLocation

Historic Weather in Kashan — Graph

°F

Kashan Temperature Yesterday

Maximum temperature yesterday: 91 °F (at 2:30 PM)
Minimum temperature yesterday: 70 °F (at 5:30 AM)
Average temperature yesterday: 82 °F

High & Low Weather Summary for the Past Weeks

 TemperatureHumidityPressure
High95 °F (Apr 27, 3:30 PM)88% (Apr 16, 6:30 AM)30.27 "Hg (Apr 16, 6:30 AM)
Low50 °F (Apr 16, 6:30 AM)9% (Apr 27, 3:30 PM)29.86 "Hg (Apr 24, 6:30 PM)
Average71 °F34%30.03 "Hg
* Reported Apr 15 6:30 AM — Apr 30 6:30 AM, Kashan, Weather by CustomWeather, © 2016

Note: Actual official high and low records may vary slightly from our data, if they occured in-between our weather recording intervals... More about our weather records

Advertising

Kashan Weather History for the Previous 24 Hours

Scroll right to see more
 ConditionsComfort  
Time TempWeatherWind HumidityBarometerVisibility
6:30 AM
Sat, Apr 30
66 °FClear.No wind46%29.92 "Hg10 mi
5:30 AM68 °FClear.5 mph43%29.92 "Hg10 mi
3:30 AM70 °FClear.No wind43%29.95 "Hg10 mi
2:30 AM72 °FClear.No wind41%29.95 "Hg10 mi
12:30 AM77 °FPassing clouds.9 mph30%29.92 "HgN/A
11:30 PM
Fri, Apr 29
79 °FPassing clouds.12 mph28%29.92 "HgN/A
9:30 PM84 °FPassing clouds.No wind27%29.89 "HgN/A
8:30 PM84 °FPartly sunny.No wind27%29.86 "HgN/A
6:30 PM88 °FBroken clouds.No wind21%29.86 "HgN/A
5:30 PM90 °FScattered clouds.12 mph20%29.89 "HgN/A
3:30 PM91 °FSunny.9 mph20%29.92 "Hg10 mi
2:30 PM91 °FSunny.12 mph20%29.92 "Hg10 mi
12:30 PM88 °FSunny.7 mph19%29.98 "Hg10 mi
11:30 AM86 °FSunny.No wind19%30.01 "Hg10 mi
9:30 AM82 °FSunny.No wind30%30.07 "Hg10 mi
8:30 AM75 °FScattered clouds.No wind34%30.01 "HgN/A
Weather by CustomWeather, © 2016

See weather overviewHow to use our weather pages